Details From ZHHH - Tianhe
To VTSP - Phuket Intl
Flight Number -
Tags Generated
Created
Modified
Stats Distance 1,627 nm / 3,013 km
Max Altitude 0 ft / 0 m
Waypoints 4
Social Downloads 1
Likes 0
Share VATSIM

Download

Looking for another format? Having issues loading an existing format? Contact us
Advertisement - Login to hide

Notes

Generated

Route

ZHHH HAPPY PUT VTSP

ID Type Via Altitude Latitude Longitude Leg Dist Tot Dist Heading (true) Name
O ZHHH APT - 0 ft / 0 m 30.77228˚ 114.19631˚ - 0 nm - -
HAPPY FIX - 0 ft / 0 m 14.64629˚ 102.24744˚ 1171 nm 1171 nm 217° / 212° -
PUT VOR - 0 ft / 0 m 8.11523˚ 98.30630˚ 455 nm 1626 nm 211° / 210° PHUKET VOR-DME
O VTSP APT - 0 ft / 0 m 8.11189˚ 98.30327˚ 0 nm 1627 nm 222° / 222° -

Altitude Profile

Advertisement - Login to hide

Weather


0- 5 10 15 20 25 30 35+ Temperature / ° C

Clouds and Precipitation
Forecast for 2018-05-27 18:00 UTC. Updated 3 hours ago

Ground ~20,000 ft ~40,000 ft Winds

ZHHH

Details ICAO ZHHH (WUH)
Name TIANHE
Region China
Timezone Asia/Shanghai (UTC+8.0)
Stats Elevation 113 ft / 34 m (AMSL)
Location 30.783759° 114.208099°
Runways 1
Magnetic Variation 4.412° W

METAR

ZHHH 272000Z VRB01MPS CAVOK 22/17 Q1009 NOSIG

Decode

TAF

Not found

Departure Runways

ID Width Length Bearing (true) Bearing (mag) Surface Threshold Offset Overrun Length
04 148 ft / 45 m 11,170 ft / 3,405 m 41.41° 45.82° Concrete 0 ft / 0 m 197 ft / 60 m
22 148 ft / 45 m 11,170 ft / 3,405 m 221.42° 225.83° Concrete 0 ft / 0 m 197 ft / 60 m

VTSP

Details ICAO VTSP (HKT)
Name Phuket Intl
Region Thailand
Timezone Asia/Bangkok (UTC+7.0)
Stats Elevation 82 ft / 25 m (AMSL)
Location 8.113199° 98.316871°
Runways 1
Magnetic Variation 0.423° W

METAR

VTSP 272000Z VRB02KT 8000 FEW020 SCT100 26/24 Q1010 NOSIG

Decode

TAF

TAF VTSP 271700Z 2718/2824 VRB02KT 8000 FEW020 SCT100 BECMG 2804/2806 28008KT 9999 TEMPO 2806/2810 VRB10G20KT 5000 TSRA FEW018CB SCT020 BKN100 BECMG 2810/2812 VRB02KT 8000

Decode

Destination Runways

ID Width Length Bearing (true) Bearing (mag) Surface Threshold Offset Overrun Length
09 148 ft / 45 m 9,870 ft / 3,008 m 84.45° 84.87° Asphalt 0 ft / 0 m 197 ft / 60 m
27 148 ft / 45 m 9,870 ft / 3,008 m 264.46° 264.88° Asphalt 0 ft / 0 m 197 ft / 60 m

Approach Navaids

Runway Type Ident Frequency Range Bearing (true) Bearing (mag) Slope Elevation
27 Localiser IPKT 109.90 MHz 18 nm / 33 km 263.45° 263.88° - 19 ft / 6 m (AMSL)
27 Glidescope IPKT 109.90 MHz 10 nm / 19 km 263.45° 263.88° 3.20° 82 ft / 25 m (AMSL)
27 DME IPKT 109.90 MHz 18 nm / 33 km - - - 82 ft / 25 m (AMSL)